Regional Weather Roundup
Issued by NWS

Home | Current Version | Previous Version | Text Only | Print | Product List | Glossary Off
Versions: 1 2 3 4 5 6 7 8 9 10 11 12 13 14 15 16 17 18 19 20 21 22 23 24 25 26 27 28 29 30 31 32 33 34 35 36 37 38 39 40 41 42 43 44 45 46 47 48 49 50

460
ASUS44 KJAN 281603
RWRMS

MISSISSIPPI HOURLY WEATHER ROUNDUP
NATIONAL WEATHER SERVICE JACKSON MS
1000 AM CST SAT FEB 28 2015

NOTE: "FAIR: INDICATES FEW OR NO CLOUDS BELOW 12,000 FEET WITH NO
SIGNIFICANT WEATHER AND/OR OBSTRUCTIONS TO VISIBILITY.

MSZ001>002-007>008-010>013-018>021-025>028-034>036-281700-
NORTHWEST MISSISSIPPI

CITY           SKY/WX    TMP DP  RH WIND       PRES   REMARKS
CLARKSDALE     CLOUDY    32  23  69 N10       30.55S WCI  24
CLEVELAND      CLOUDY    37  25  63 NE9       30.51S WCI  30
GREENWOOD        N/A    N/A N/A N/A MISG      30.49F
GREENVILLE     SUNNY     37  26  64 NE13      30.50S WCI  29
OXFORD         FAIR      34  16  47 MISG      30.53F
TUNICA         CLOUDY    32  21  64 NE7       30.56S WCI  26
$$

MSZ003>006-009-014>017-022>024-029>033-037>039-281700-
NORTHEAST MISSISSIPPI

CITY           SKY/WX    TMP DP  RH WIND       PRES   REMARKS
COLUMBUS AFB   CLOUDY    40  22  49 E5        30.52F
CORINTH        PTSUNNY   37  16  41 NE8       30.54F WCI  31
GOLDN TRIANGLE MOSUNNY   39  23  52 NE7       30.51F WCI  34
STARKVILLE     PTSUNNY   41  27  56 E6        30.51F
TUPELO         PTSUNNY   36  17  46 NE8       30.53F WCI  30
$$

MSZ040-058-281700-
CENTRAL MISSISSIPPI

CITY           SKY/WX    TMP DP  RH WIND       PRES   REMARKS
JACKSON INTL   PTSUNNY   48  23  37 N3        30.45S
JACKSON HAWKNS CLOUDY    45  22  40 E7        30.45S
MERIDIAN KEY   MOSUNNY   49  29  46 SE8       30.49S
MERIDIAN NAS   SUNNY     49  28  44 E10       30.50F
VICKSBURG      CLOUDY    40  28  62 NE5       30.47S
$$

MSZ059>079-281700-
SOUTH MISSISSIPPI

CITY           SKY/WX    TMP DP  RH WIND       PRES   REMARKS
BROOKHAVEN     FAIR      48  32  53 E6        30.43S
HATTIESBURG    SUNNY     48  30  49 E6        30.46F
MCCOMB         SUNNY     49  29  46 VRB6      30.41F
NATCHEZ        CLOUDY    45  28  53 E6        30.43F
PINE BELT      SUNNY     46  28  49 E8        30.46F
$$

MSZ080>082-281700-
COASTAL MISSISSIPPI

CITY           SKY/WX    TMP DP  RH WIND       PRES   REMARKS
BAY ST LOUIS   SUNNY     54  30  40 E9        30.43F
BILOXI         SUNNY     53  33  47 E12       30.42F
PASCAGOULA     SUNNY     52  34  50 NE12      30.43F
GULFPORT       SUNNY     52  33  48 NE10      30.42F
$$



USA.gov is the U.S. government's official web portal to all federal, state and local government web resources and services.